Year,Month,Day,Hour,Minute,Value (Times are PST for windspeed in km/hr)
2016,10,14,00,00,24.10
2016,10,14,00,01,13.70
2016,10,14,00,02,21.50
2016,10,14,00,03,17.90
2016,10,14,00,04,23.20
2016,10,14,00,05,26.00
2016,10,14,00,06,23.10
2016,10,14,00,07,27.40
2016,10,14,00,08,27.40
2016,10,14,00,09,25.80
2016,10,14,00,10,19.80
2016,10,14,00,11,13.90
2016,10,14,00,12,20.60
2016,10,14,00,13,16.70
2016,10,14,00,14,19.60
2016,10,14,00,15,17.00
2016,10,14,00,16,21.20
2016,10,14,00,17,16.60
2016,10,14,00,18,26.10
2016,10,14,00,19,25.40
2016,10,14,00,20,16.90
2016,10,14,00,21,16.60
2016,10,14,00,22,16.20
2016,10,14,00,23,17.00
2016,10,14,00,24,10.40
2016,10,14,00,25,11.30
2016,10,14,00,26,11.30
2016,10,14,00,27,12.90
2016,10,14,00,28,12.90
2016,10,14,00,29,18.80
2016,10,14,00,30,18.90
2016,10,14,00,31,20.10
2016,10,14,00,32,21.50
2016,10,14,00,33,27.60
2016,10,14,00,34,19.50
2016,10,14,00,35,21.00
2016,10,14,00,36,20.50
2016,10,14,00,37,23.80
2016,10,14,00,38,23.80
2016,10,14,00,39,22.60
2016,10,14,00,40,28.20
2016,10,14,00,41,19.30
2016,10,14,00,42,18.20
2016,10,14,00,43,14.70
2016,10,14,00,44,20.40
2016,10,14,00,45,16.40
2016,10,14,00,46,13.30
2016,10,14,00,47,39.20
2016,10,14,00,48,13.90
2016,10,14,00,49,14.20
2016,10,14,00,50,15.60
2016,10,14,00,51,23.30
2016,10,14,00,52,23.10
2016,10,14,00,53,15.40
2016,10,14,00,54,22.30
2016,10,14,00,55,20.50
2016,10,14,00,56,11.30
2016,10,14,00,57,20.40
2016,10,14,00,58,23.10
2016,10,14,00,59,21.10
2016,10,14,01,00,17.80
2016,10,14,01,01,15.10
2016,10,14,01,02,22.20
2016,10,14,01,03,23.30
2016,10,14,01,04,27.30
2016,10,14,01,05,30.30
2016,10,14,01,06,27.90
2016,10,14,01,07,34.20
2016,10,14,01,08,28.70
2016,10,14,01,09,28.10
2016,10,14,01,10,31.00
2016,10,14,01,11,29.00
2016,10,14,01,12,16.80
2016,10,14,01,13,18.40
2016,10,14,01,14,24.80
2016,10,14,01,15,14.10
2016,10,14,01,16,17.20
2016,10,14,01,17,17.40
2016,10,14,01,18,28.00
2016,10,14,01,19,28.40
2016,10,14,01,20,22.60
2016,10,14,01,21,19.70
2016,10,14,01,22,31.30
2016,10,14,01,23,22.50
2016,10,14,01,24,24.60
2016,10,14,01,25,20.90
2016,10,14,01,26,27.00
2016,10,14,01,27,34.00
2016,10,14,01,28,34.90
2016,10,14,01,29,23.50
2016,10,14,01,30,28.40
2016,10,14,01,31,27.50
2016,10,14,01,32,24.20
2016,10,14,01,33,27.40
2016,10,14,01,34,27.80
2016,10,14,01,35,26.00
2016,10,14,01,36,24.90
2016,10,14,01,37,26.30
2016,10,14,01,38,24.50
2016,10,14,01,39,26.10
2016,10,14,01,40,28.00
2016,10,14,01,41,30.10
2016,10,14,01,42,13.00
2016,10,14,01,43,18.80
2016,10,14,01,44,24.30
2016,10,14,01,45,33.80
2016,10,14,01,46,32.70
2016,10,14,01,47,22.70
2016,10,14,01,48,28.30
2016,10,14,01,49,24.10
2016,10,14,01,50,28.40
2016,10,14,01,51,21.80
2016,10,14,01,52,27.10
2016,10,14,01,53,25.20
2016,10,14,01,54,24.60
2016,10,14,01,55,14.70
2016,10,14,01,56,18.00
2016,10,14,01,57,17.90
2016,10,14,01,58,20.90
2016,10,14,01,59,18.40
2016,10,14,02,00,29.80
2016,10,14,02,01,16.80
2016,10,14,02,02,17.20
2016,10,14,02,03,22.60
2016,10,14,02,04,25.60
2016,10,14,02,05,22.40
2016,10,14,02,06,31.30
2016,10,14,02,07,20.60
2016,10,14,02,08,25.90
2016,10,14,02,09,18.00
2016,10,14,02,10,27.20
2016,10,14,02,11,26.20
2016,10,14,02,12,20.20
2016,10,14,02,13,20.10
2016,10,14,02,14,19.20
2016,10,14,02,15,20.30
2016,10,14,02,16,16.70
2016,10,14,02,17,17.50
2016,10,14,02,18,22.80
2016,10,14,02,19,25.80
2016,10,14,02,20,18.00
2016,10,14,02,21,23.40
2016,10,14,02,22,14.90
2016,10,14,02,23,18.60
2016,10,14,02,24,25.70
2016,10,14,02,25,21.90
2016,10,14,02,26,24.20
2016,10,14,02,27,24.20
2016,10,14,02,28,27.60
2016,10,14,02,29,30.80
2016,10,14,02,30,23.80
2016,10,14,02,31,18.60
2016,10,14,02,32,32.30
2016,10,14,02,33,26.80
2016,10,14,02,34,24.40
2016,10,14,02,35,26.10
2016,10,14,02,36,26.50
2016,10,14,02,37,27.70
2016,10,14,02,38,24.10
2016,10,14,02,39,28.00
2016,10,14,02,40,18.90
2016,10,14,02,41,12.60
2016,10,14,02,42,17.50
2016,10,14,02,43,14.00
2016,10,14,02,44,14.40
2016,10,14,02,45,15.90
2016,10,14,02,46,20.00
2016,10,14,02,47,19.80
2016,10,14,02,48,19.10
2016,10,14,02,49,17.80
2016,10,14,02,50,16.60
2016,10,14,02,51,16.00
2016,10,14,02,52,16.90
2016,10,14,02,53,23.00
2016,10,14,02,54,20.70
2016,10,14,02,55,22.70
2016,10,14,02,56,27.80
2016,10,14,02,57,20.40
2016,10,14,02,58,16.50
2016,10,14,02,59,10.70
2016,10,14,03,00,21.30
2016,10,14,03,01,18.20
2016,10,14,03,02,11.60
2016,10,14,03,03,13.90
2016,10,14,03,04,15.60
2016,10,14,03,05,19.80
2016,10,14,03,06,24.40
2016,10,14,03,07,24.10
2016,10,14,03,08,19.20
2016,10,14,03,09,18.30
2016,10,14,03,10,17.50
2016,10,14,03,11,16.60
2016,10,14,03,12,14.60
2016,10,14,03,13,28.80
2016,10,14,03,14,21.50
2016,10,14,03,15,21.20
2016,10,14,03,16,15.40
2016,10,14,03,17,24.60
2016,10,14,03,18,14.60
2016,10,14,03,19,15.20
2016,10,14,03,20,24.90
2016,10,14,03,21,17.20
2016,10,14,03,22,19.50
2016,10,14,03,23,26.00
2016,10,14,03,24,24.00
2016,10,14,03,25,17.00
2016,10,14,03,26,16.30
2016,10,14,03,27,19.40
2016,10,14,03,28,12.40
2016,10,14,03,29,9.50
2016,10,14,03,30,18.20
2016,10,14,03,31,22.20
2016,10,14,03,32,16.60
2016,10,14,03,33,16.50
2016,10,14,03,34,18.50
2016,10,14,03,35,15.10
2016,10,14,03,36,24.40
2016,10,14,03,37,26.00
2016,10,14,03,38,19.60
2016,10,14,03,39,25.00
2016,10,14,03,40,18.40
2016,10,14,03,41,14.20
2016,10,14,03,42,18.10
2016,10,14,03,43,27.70
2016,10,14,03,44,22.20
2016,10,14,03,45,27.80
2016,10,14,03,46,24.10
2016,10,14,03,47,18.50
2016,10,14,03,48,14.90
2016,10,14,03,49,25.20
2016,10,14,03,50,24.10
2016,10,14,03,51,36.50
2016,10,14,03,52,23.30
2016,10,14,03,53,16.80
2016,10,14,03,54,25.90
2016,10,14,03,55,14.00
2016,10,14,03,56,17.90
2016,10,14,03,57,14.50
2016,10,14,03,58,21.10
2016,10,14,03,59,16.80
2016,10,14,04,00,20.70
2016,10,14,04,01,17.80
2016,10,14,04,02,15.10
2016,10,14,04,03,19.10
2016,10,14,04,04,20.80
2016,10,14,04,05,15.80
2016,10,14,04,06,13.30
2016,10,14,04,07,15.20
2016,10,14,04,08,24.20
2016,10,14,04,09,20.60
2016,10,14,04,10,13.40
2016,10,14,04,11,16.50
2016,10,14,04,12,19.30
2016,10,14,04,13,19.40
2016,10,14,04,14,15.20
2016,10,14,04,15,13.50
2016,10,14,04,16,13.20
2016,10,14,04,17,16.60
2016,10,14,04,18,15.30
2016,10,14,04,19,14.60
2016,10,14,04,20,16.80
2016,10,14,04,21,20.20
2016,10,14,04,22,10.70
2016,10,14,04,23,13.30
2016,10,14,04,24,12.20
2016,10,14,04,25,13.80
2016,10,14,04,26,15.10
2016,10,14,04,27,13.80
2016,10,14,04,28,16.50
2016,10,14,04,29,13.80
2016,10,14,04,30,14.30
2016,10,14,04,31,19.70
2016,10,14,04,32,16.90
2016,10,14,04,33,13.60
2016,10,14,04,34,11.10
2016,10,14,04,35,10.90
2016,10,14,04,36,13.60
2016,10,14,04,37,16.20
2016,10,14,04,38,13.00
2016,10,14,04,39,18.60
2016,10,14,04,40,12.00
2016,10,14,04,41,19.50
2016,10,14,04,42,12.90
2016,10,14,04,43,13.70
2016,10,14,04,44,10.30
2016,10,14,04,45,16.60
2016,10,14,04,46,17.90
2016,10,14,04,47,12.90
2016,10,14,04,48,12.10
2016,10,14,04,49,11.90
2016,10,14,04,50,12.00
2016,10,14,04,51,12.30
2016,10,14,04,52,10.20
2016,10,14,04,53,14.90
2016,10,14,04,54,14.30
2016,10,14,04,55,11.80
2016,10,14,04,56,7.70
2016,10,14,04,57,15.20
2016,10,14,04,58,9.70
2016,10,14,04,59,8.80
2016,10,14,05,00,6.90
2016,10,14,05,01,8.70
2016,10,14,05,02,5.70
2016,10,14,05,03,6.00
2016,10,14,05,04,6.70
2016,10,14,05,05,10.00
2016,10,14,05,06,16.60
2016,10,14,05,07,9.10
2016,10,14,05,08,5.60
2016,10,14,05,09,5.70
2016,10,14,05,10,6.90
2016,10,14,05,11,14.30
2016,10,14,05,12,7.00
2016,10,14,05,13,8.90
2016,10,14,05,14,9.20
2016,10,14,05,15,8.20
2016,10,14,05,16,8.60
2016,10,14,05,17,13.20
2016,10,14,05,18,9.70
2016,10,14,05,19,7.80
2016,10,14,05,20,8.30
2016,10,14,05,21,14.40
2016,10,14,05,22,13.80
2016,10,14,05,23,13.60
2016,10,14,05,24,15.90
2016,10,14,05,25,13.80
2016,10,14,05,26,10.40
2016,10,14,05,27,10.70
2016,10,14,05,28,12.70
2016,10,14,05,29,11.90
2016,10,14,05,30,11.20
2016,10,14,05,31,8.10
2016,10,14,05,32,11.30
2016,10,14,05,33,9.40
2016,10,14,05,34,11.80
2016,10,14,05,35,6.80
2016,10,14,05,36,8.10
2016,10,14,05,37,10.40
2016,10,14,05,38,4.80
2016,10,14,05,39,5.10
2016,10,14,05,40,4.50
2016,10,14,05,41,5.00
2016,10,14,05,42,4.40
2016,10,14,05,43,8.50
2016,10,14,05,44,2.90
2016,10,14,05,45,7.40
2016,10,14,05,46,9.80
2016,10,14,05,47,6.00
2016,10,14,05,48,7.80
2016,10,14,05,49,5.00
2016,10,14,05,50,7.40
2016,10,14,05,51,5.80
2016,10,14,05,52,5.30
2016,10,14,05,53,5.50
2016,10,14,05,54,5.10
2016,10,14,05,55,6.70
2016,10,14,05,56,5.20
2016,10,14,05,57,6.00
2016,10,14,05,58,9.60
2016,10,14,05,59,8.90
2016,10,14,06,00,7.50
2016,10,14,06,01,9.40
2016,10,14,06,02,7.50
2016,10,14,06,03,8.00
2016,10,14,06,04,9.90
2016,10,14,06,05,8.40
2016,10,14,06,06,7.10
2016,10,14,06,07,5.80
2016,10,14,06,08,7.00
2016,10,14,06,09,7.60
2016,10,14,06,10,4.80
2016,10,14,06,11,7.40
2016,10,14,06,12,4.40
2016,10,14,06,13,4.30
2016,10,14,06,14,4.00
2016,10,14,06,15,7.50
2016,10,14,06,16,8.50
2016,10,14,06,17,5.20
2016,10,14,06,18,5.10
2016,10,14,06,19,7.40
2016,10,14,06,20,9.60
2016,10,14,06,21,7.40
2016,10,14,06,22,7.40
2016,10,14,06,23,5.30
2016,10,14,06,24,5.80
2016,10,14,06,25,4.90
2016,10,14,06,26,5.10
2016,10,14,06,27,4.20
2016,10,14,06,28,6.70
2016,10,14,06,29,8.10
2016,10,14,06,30,4.70
2016,10,14,06,31,2.80
2016,10,14,06,32,1.60
2016,10,14,06,33,3.50
2016,10,14,06,34,2.90
2016,10,14,06,35,4.20
2016,10,14,06,36,1.50
2016,10,14,06,37,0.60
2016,10,14,06,38,0.10
2016,10,14,06,39,0.50
2016,10,14,06,40,1.30
2016,10,14,06,41,2.50
2016,10,14,06,42,2.70
2016,10,14,06,43,3.90
2016,10,14,06,44,0.70
2016,10,14,06,45,0.40
2016,10,14,06,46,1.30
2016,10,14,06,47,0.30
2016,10,14,06,48,0.00
2016,10,14,06,49,0.00
2016,10,14,06,50,0.00
2016,10,14,06,51,0.00
2016,10,14,06,52,0.00
2016,10,14,06,53,0.00
2016,10,14,06,54,0.00
2016,10,14,06,55,0.00
2016,10,14,06,56,1.10
2016,10,14,06,57,5.70
2016,10,14,06,58,5.10
2016,10,14,06,59,6.70
2016,10,14,07,00,13.10
2016,10,14,07,01,5.90
2016,10,14,07,02,8.50
2016,10,14,07,03,9.30
2016,10,14,07,04,7.30
2016,10,14,07,05,8.80
2016,10,14,07,06,4.70
2016,10,14,07,07,5.70
2016,10,14,07,08,6.40
2016,10,14,07,09,3.20
2016,10,14,07,10,3.30
2016,10,14,07,11,3.50
2016,10,14,07,12,1.80
2016,10,14,07,13,3.90
2016,10,14,07,14,6.10
2016,10,14,07,15,4.60
2016,10,14,07,16,3.30
2016,10,14,07,17,4.00
2016,10,14,07,18,4.10
2016,10,14,07,19,3.90
2016,10,14,07,20,5.60
2016,10,14,07,21,7.80
2016,10,14,07,22,6.10
2016,10,14,07,23,5.40
2016,10,14,07,24,7.10
2016,10,14,07,25,10.10
2016,10,14,07,26,9.30
2016,10,14,07,27,7.70
2016,10,14,07,28,6.20
2016,10,14,07,29,7.40
2016,10,14,07,30,5.70
2016,10,14,07,31,9.20
2016,10,14,07,32,7.40
2016,10,14,07,33,8.40
2016,10,14,07,34,6.00
2016,10,14,07,35,4.20
2016,10,14,07,36,4.80
2016,10,14,07,37,5.40
2016,10,14,07,38,6.40
2016,10,14,07,39,4.50
2016,10,14,07,40,4.80
2016,10,14,07,41,5.70
2016,10,14,07,42,6.30
2016,10,14,07,43,5.40
2016,10,14,07,44,7.40
2016,10,14,07,45,7.60
2016,10,14,07,46,6.20
2016,10,14,07,47,5.90
2016,10,14,07,48,5.30
2016,10,14,07,49,5.10
2016,10,14,07,50,7.20
2016,10,14,07,51,8.40
2016,10,14,07,52,8.70
2016,10,14,07,53,5.80
2016,10,14,07,54,4.30
2016,10,14,07,55,4.50
2016,10,14,07,56,5.30
2016,10,14,07,57,5.70
2016,10,14,07,58,4.10
2016,10,14,07,59,4.20
2016,10,14,08,00,4.00
2016,10,14,08,01,1.60
2016,10,14,08,02,3.40
2016,10,14,08,03,4.70
2016,10,14,08,04,4.30
2016,10,14,08,05,6.90
2016,10,14,08,06,4.70
2016,10,14,08,07,7.30
2016,10,14,08,08,9.30
2016,10,14,08,09,8.40
2016,10,14,08,10,8.60
2016,10,14,08,11,9.60
2016,10,14,08,12,3.50
2016,10,14,08,13,3.30
2016,10,14,08,14,6.40
2016,10,14,08,15,7.00
2016,10,14,08,16,7.40
2016,10,14,08,17,5.40
2016,10,14,08,18,3.70
2016,10,14,08,19,2.90
2016,10,14,08,20,5.30
2016,10,14,08,21,5.40
2016,10,14,08,22,6.70
2016,10,14,08,23,7.50
2016,10,14,08,24,5.30
2016,10,14,08,25,7.00
2016,10,14,08,26,5.90
2016,10,14,08,27,3.70
2016,10,14,08,28,3.60
2016,10,14,08,29,0.80
2016,10,14,08,30,0.80
2016,10,14,08,31,0.00
2016,10,14,08,32,0.90
2016,10,14,08,33,2.10
2016,10,14,08,34,5.70
2016,10,14,08,35,6.70
2016,10,14,08,36,5.30
2016,10,14,08,37,3.60
2016,10,14,08,38,4.70
2016,10,14,08,39,5.80
2016,10,14,08,40,3.80
2016,10,14,08,41,3.20
2016,10,14,08,42,3.20
2016,10,14,08,43,3.30
2016,10,14,08,44,4.50
2016,10,14,08,45,3.60
2016,10,14,08,46,4.00
2016,10,14,08,47,3.80
2016,10,14,08,48,3.90
2016,10,14,08,49,2.80
2016,10,14,08,50,2.20
2016,10,14,08,51,4.90
2016,10,14,08,52,4.70
2016,10,14,08,53,6.40
2016,10,14,08,54,5.70
2016,10,14,08,55,7.00
2016,10,14,08,56,8.50
2016,10,14,08,57,7.60
2016,10,14,08,58,5.10
2016,10,14,08,59,8.20
2016,10,14,09,00,7.90
2016,10,14,09,01,7.80
2016,10,14,09,02,5.20
2016,10,14,09,03,5.40
2016,10,14,09,04,5.30
2016,10,14,09,05,5.10
2016,10,14,09,06,4.50
2016,10,14,09,07,4.70
2016,10,14,09,08,4.90
2016,10,14,09,09,4.60
2016,10,14,09,10,5.10
2016,10,14,09,11,4.20
2016,10,14,09,12,4.80
2016,10,14,09,13,4.30
2016,10,14,09,14,3.10
2016,10,14,09,15,2.80
2016,10,14,09,16,2.40
2016,10,14,09,17,2.10
2016,10,14,09,18,1.20
2016,10,14,09,19,0.00
2016,10,14,09,20,0.00
2016,10,14,09,21,0.00
2016,10,14,09,22,0.00
2016,10,14,09,23,0.00
2016,10,14,09,24,0.00
2016,10,14,09,25,0.00
2016,10,14,09,26,2.40
2016,10,14,09,27,4.70
2016,10,14,09,28,4.90
2016,10,14,09,29,4.50
2016,10,14,09,30,5.70
2016,10,14,09,31,4.20
2016,10,14,09,32,5.00
2016,10,14,09,33,4.80
2016,10,14,09,34,6.20
2016,10,14,09,35,5.10
2016,10,14,09,36,4.50
2016,10,14,09,37,3.60
2016,10,14,09,38,3.20
2016,10,14,09,39,3.10
2016,10,14,09,40,4.10
2016,10,14,09,41,3.10
2016,10,14,09,42,3.00
2016,10,14,09,43,3.10
2016,10,14,09,44,1.60
2016,10,14,09,45,3.00
2016,10,14,09,46,4.30
2016,10,14,09,47,4.00
2016,10,14,09,48,3.40
2016,10,14,09,49,3.90
2016,10,14,09,50,2.70
2016,10,14,09,51,2.20
2016,10,14,09,52,1.80
2016,10,14,09,53,4.30
2016,10,14,09,54,3.20
2016,10,14,09,55,2.50
2016,10,14,09,56,3.80
2016,10,14,09,57,3.10
2016,10,14,09,58,2.30
2016,10,14,09,59,3.10
2016,10,14,10,00,3.30
2016,10,14,10,01,3.50
2016,10,14,10,02,4.10
2016,10,14,10,03,3.70
2016,10,14,10,04,4.40
2016,10,14,10,05,2.80
2016,10,14,10,06,1.80
2016,10,14,10,07,1.70
2016,10,14,10,08,2.40
2016,10,14,10,09,2.70
2016,10,14,10,10,1.60
2016,10,14,10,11,0.50
2016,10,14,10,12,1.70
2016,10,14,10,13,1.80
2016,10,14,10,14,2.30
2016,10,14,10,15,2.10
2016,10,14,10,16,2.10
2016,10,14,10,17,2.70
2016,10,14,10,18,2.30
2016,10,14,10,19,0.50
2016,10,14,10,20,0.20
2016,10,14,10,21,0.10
2016,10,14,10,22,1.40
2016,10,14,10,23,1.30
2016,10,14,10,24,1.80
2016,10,14,10,25,3.10
2016,10,14,10,26,1.80
2016,10,14,10,27,1.80
2016,10,14,10,28,1.40
2016,10,14,10,29,1.80
2016,10,14,10,30,3.40
2016,10,14,10,31,2.50
2016,10,14,10,32,3.50
2016,10,14,10,33,2.40
2016,10,14,10,34,3.10
2016,10,14,10,35,3.60
2016,10,14,10,36,3.90
2016,10,14,10,37,3.10
2016,10,14,10,38,3.10
2016,10,14,10,39,2.70
2016,10,14,10,40,3.10
2016,10,14,10,41,4.80
2016,10,14,10,42,4.70
2016,10,14,10,43,5.10
2016,10,14,10,44,5.00
2016,10,14,10,45,4.30
2016,10,14,10,46,4.20
2016,10,14,10,47,4.50
2016,10,14,10,48,3.50
2016,10,14,10,49,2.80
2016,10,14,10,50,5.10
2016,10,14,10,51,4.20
2016,10,14,10,52,4.10
2016,10,14,10,53,4.20
2016,10,14,10,54,3.60
2016,10,14,10,55,2.90
2016,10,14,10,56,2.10
2016,10,14,10,57,1.90
2016,10,14,10,58,1.50
2016,10,14,10,59,2.40
2016,10,14,11,00,4.70
2016,10,14,11,01,2.50
2016,10,14,11,02,2.60
2016,10,14,11,03,2.80
2016,10,14,11,04,3.20
2016,10,14,11,05,2.50
2016,10,14,11,06,3.30
2016,10,14,11,07,2.70
2016,10,14,11,08,2.60
2016,10,14,11,09,3.00
2016,10,14,11,10,1.70
2016,10,14,11,11,3.10
2016,10,14,11,12,2.80
2016,10,14,11,13,2.30
2016,10,14,11,14,4.10
2016,10,14,11,15,4.40
2016,10,14,11,16,2.40
2016,10,14,11,17,3.50
2016,10,14,11,18,3.20
2016,10,14,11,19,2.40
2016,10,14,11,20,3.70
2016,10,14,11,21,2.30
2016,10,14,11,22,3.40
2016,10,14,11,23,3.20
2016,10,14,11,24,5.50
2016,10,14,11,25,4.90
2016,10,14,11,26,3.10
2016,10,14,11,27,4.20
2016,10,14,11,28,3.00
2016,10,14,11,29,4.60
2016,10,14,11,30,6.00
2016,10,14,11,31,5.70
2016,10,14,11,32,2.80
2016,10,14,11,33,3.50
2016,10,14,11,34,3.40
2016,10,14,11,35,3.70
2016,10,14,11,36,6.00
2016,10,14,11,37,5.10
2016,10,14,11,38,5.60
2016,10,14,11,39,3.10
2016,10,14,11,40,2.40
2016,10,14,11,41,4.20
2016,10,14,11,42,1.60
2016,10,14,11,43,2.40
2016,10,14,11,44,6.40
2016,10,14,11,45,4.70
2016,10,14,11,46,5.20
2016,10,14,11,47,3.00
2016,10,14,11,48,3.10
2016,10,14,11,49,4.00
2016,10,14,11,50,2.60
2016,10,14,11,51,2.50
2016,10,14,11,52,1.40
2016,10,14,11,53,5.20
2016,10,14,11,54,3.40
2016,10,14,11,55,3.10
2016,10,14,11,56,4.80
2016,10,14,11,57,6.40
2016,10,14,11,58,4.70
2016,10,14,11,59,9.90
2016,10,14,12,00,6.30
2016,10,14,12,01,4.60
2016,10,14,12,02,8.30
2016,10,14,12,03,5.10
2016,10,14,12,04,3.70
2016,10,14,12,05,5.30
2016,10,14,12,06,5.30
2016,10,14,12,07,5.40
2016,10,14,12,08,4.20
2016,10,14,12,09,3.10
2016,10,14,12,10,5.30
2016,10,14,12,11,4.60
2016,10,14,12,12,1.70
2016,10,14,12,13,2.80
2016,10,14,12,14,2.40
2016,10,14,12,15,3.40
2016,10,14,12,16,4.10
2016,10,14,12,17,3.80
2016,10,14,12,18,5.30
2016,10,14,12,19,2.10
2016,10,14,12,20,3.90
2016,10,14,12,21,4.20
2016,10,14,12,22,6.70
2016,10,14,12,23,8.00
2016,10,14,12,24,8.30
2016,10,14,12,25,4.70
2016,10,14,12,26,1.20
2016,10,14,12,27,2.00
2016,10,14,12,28,0.80
2016,10,14,12,29,0.30
2016,10,14,12,30,1.70
2016,10,14,12,31,1.60
2016,10,14,12,32,1.70
2016,10,14,12,33,0.80
2016,10,14,12,34,4.50
2016,10,14,12,35,6.70
2016,10,14,12,36,3.40
2016,10,14,12,37,2.30
2016,10,14,12,38,1.70
2016,10,14,12,39,0.80
2016,10,14,12,40,2.40
2016,10,14,12,41,3.40
2016,10,14,12,42,2.20
2016,10,14,12,43,2.80
2016,10,14,12,44,3.40
2016,10,14,12,45,2.10
2016,10,14,12,46,1.50
2016,10,14,12,47,3.40
2016,10,14,12,48,1.90
2016,10,14,12,49,1.50
2016,10,14,12,50,2.00
2016,10,14,12,51,1.90
2016,10,14,12,52,2.80
2016,10,14,12,53,2.00
2016,10,14,12,54,1.60
2016,10,14,12,55,0.80
2016,10,14,12,56,2.30
2016,10,14,12,57,2.70
2016,10,14,12,58,1.20
2016,10,14,12,59,3.10
2016,10,14,13,00,1.00
2016,10,14,13,01,0.40
2016,10,14,13,02,1.00
2016,10,14,13,03,0.00
2016,10,14,13,04,2.10
2016,10,14,13,05,4.00
2016,10,14,13,06,3.20
2016,10,14,13,07,2.70
2016,10,14,13,08,2.50
2016,10,14,13,09,2.10
2016,10,14,13,10,1.20
2016,10,14,13,11,2.00
2016,10,14,13,12,2.40
2016,10,14,13,13,1.00
2016,10,14,13,14,1.00
2016,10,14,13,15,0.60
2016,10,14,13,16,0.40
2016,10,14,13,17,6.20
2016,10,14,13,18,4.20
2016,10,14,13,19,3.20
2016,10,14,13,20,1.60
2016,10,14,13,21,2.10
2016,10,14,13,22,1.60
2016,10,14,13,23,0.20
2016,10,14,13,24,2.40
2016,10,14,13,25,2.20
2016,10,14,13,26,1.80
2016,10,14,13,27,1.80
2016,10,14,13,28,1.50
2016,10,14,13,29,1.50
2016,10,14,13,30,2.10
2016,10,14,13,31,1.70
2016,10,14,13,32,4.10
2016,10,14,13,33,3.80
2016,10,14,13,34,6.40
2016,10,14,13,35,7.30
2016,10,14,13,36,3.50
2016,10,14,13,37,3.40
2016,10,14,13,38,3.00
2016,10,14,13,39,3.80
2016,10,14,13,40,3.40
2016,10,14,13,41,3.10
2016,10,14,13,42,4.70
2016,10,14,13,43,5.90
2016,10,14,13,44,4.10
2016,10,14,13,45,5.40
2016,10,14,13,46,7.00
2016,10,14,13,47,5.90
2016,10,14,13,48,8.40
2016,10,14,13,49,7.70
2016,10,14,13,50,6.80
2016,10,14,13,51,4.60
2016,10,14,13,52,1.80
2016,10,14,13,53,3.50
2016,10,14,13,54,5.80
2016,10,14,13,55,10.80
2016,10,14,13,56,17.90
2016,10,14,13,57,16.80
2016,10,14,13,58,13.30
2016,10,14,13,59,14.90
2016,10,14,14,00,9.10
2016,10,14,14,01,8.30
2016,10,14,14,02,6.10
2016,10,14,14,03,6.70
2016,10,14,14,04,7.50
2016,10,14,14,05,10.70
2016,10,14,14,06,7.00
2016,10,14,14,07,12.30
2016,10,14,14,08,5.30
2016,10,14,14,09,4.20
2016,10,14,14,10,6.30
2016,10,14,14,11,8.60
2016,10,14,14,12,6.70
2016,10,14,14,13,4.90
2016,10,14,14,14,4.80
2016,10,14,14,15,5.70
2016,10,14,14,16,4.40
2016,10,14,14,17,2.60
2016,10,14,14,18,2.10
2016,10,14,14,19,0.00
2016,10,14,14,20,0.00
2016,10,14,14,21,0.00
2016,10,14,14,22,0.00
2016,10,14,14,23,0.00
2016,10,14,14,24,0.00
2016,10,14,14,25,0.80
2016,10,14,14,26,3.00
2016,10,14,14,27,3.10
2016,10,14,14,28,3.70
2016,10,14,14,29,4.70
2016,10,14,14,30,5.10
2016,10,14,14,31,4.10
2016,10,14,14,32,3.30
2016,10,14,14,33,3.80
2016,10,14,14,34,1.30
2016,10,14,14,35,0.60
2016,10,14,14,36,0.50
2016,10,14,14,37,2.70
2016,10,14,14,38,3.70
2016,10,14,14,39,3.40
2016,10,14,14,40,2.70
2016,10,14,14,41,2.80
2016,10,14,14,42,2.70
2016,10,14,14,43,2.00
2016,10,14,14,44,0.40
2016,10,14,14,45,0.00
2016,10,14,14,46,0.00
2016,10,14,14,47,0.10
2016,10,14,14,48,0.00
2016,10,14,14,49,0.00
2016,10,14,14,50,0.00
2016,10,14,14,51,0.00
2016,10,14,14,52,3.10
2016,10,14,14,53,5.10
2016,10,14,14,54,4.10
2016,10,14,14,55,3.70
2016,10,14,14,56,4.60
2016,10,14,14,57,4.10
2016,10,14,14,58,4.70
2016,10,14,14,59,5.60
2016,10,14,15,00,4.60
2016,10,14,15,01,4.80
2016,10,14,15,02,4.90
2016,10,14,15,03,2.60
2016,10,14,15,04,2.10
2016,10,14,15,05,3.70
2016,10,14,15,06,1.80
2016,10,14,15,07,4.40
2016,10,14,15,08,4.50
2016,10,14,15,09,3.50
2016,10,14,15,10,4.20
2016,10,14,15,11,5.40
2016,10,14,15,12,7.10
2016,10,14,15,13,9.00
2016,10,14,15,14,8.90
2016,10,14,15,15,7.20
2016,10,14,15,16,7.40
2016,10,14,15,17,10.20
2016,10,14,15,18,9.70
2016,10,14,15,19,8.20
2016,10,14,15,20,8.60
2016,10,14,15,21,8.10
2016,10,14,15,22,6.20
2016,10,14,15,23,4.40
2016,10,14,15,24,6.30
2016,10,14,15,25,7.90
2016,10,14,15,26,6.20
2016,10,14,15,27,5.10
2016,10,14,15,28,3.80
2016,10,14,15,29,5.10
2016,10,14,15,30,4.70
2016,10,14,15,31,4.10
2016,10,14,15,32,4.10
2016,10,14,15,33,2.40
2016,10,14,15,34,3.20
2016,10,14,15,35,3.10
2016,10,14,15,36,3.00
2016,10,14,15,37,2.00
2016,10,14,15,38,1.40
2016,10,14,15,39,1.80
2016,10,14,15,40,0.50
2016,10,14,15,41,1.80
2016,10,14,15,42,2.10
2016,10,14,15,43,3.00
2016,10,14,15,44,3.50
2016,10,14,15,45,4.20
2016,10,14,15,46,3.40
2016,10,14,15,47,3.50
2016,10,14,15,48,3.80
2016,10,14,15,49,2.00
2016,10,14,15,50,5.40
2016,10,14,15,51,2.90
2016,10,14,15,52,3.90
2016,10,14,15,53,2.80
2016,10,14,15,54,2.50
2016,10,14,15,55,5.60
2016,10,14,15,56,5.20
2016,10,14,15,57,3.70
2016,10,14,15,58,4.40
2016,10,14,15,59,2.20
2016,10,14,16,00,8.40
2016,10,14,16,01,5.60
2016,10,14,16,02,2.50
2016,10,14,16,03,2.40
2016,10,14,16,04,6.10
2016,10,14,16,05,5.90
2016,10,14,16,06,3.40
2016,10,14,16,07,3.50
2016,10,14,16,08,2.70
2016,10,14,16,09,2.50
2016,10,14,16,10,0.30
2016,10,14,16,11,1.60
2016,10,14,16,12,3.10
2016,10,14,16,13,2.50
2016,10,14,16,14,2.50
2016,10,14,16,15,2.70
2016,10,14,16,16,2.60
2016,10,14,16,17,0.20
2016,10,14,16,18,0.90
2016,10,14,16,19,0.50
2016,10,14,16,20,2.30
2016,10,14,16,21,3.00
2016,10,14,16,22,1.40
2016,10,14,16,23,0.00
2016,10,14,16,24,1.50
2016,10,14,16,25,0.70
2016,10,14,16,26,1.20
2016,10,14,16,27,3.10
2016,10,14,16,28,4.70
2016,10,14,16,29,3.40
2016,10,14,16,30,3.40
2016,10,14,16,31,0.50
2016,10,14,16,32,3.60
2016,10,14,16,33,6.90
2016,10,14,16,34,6.70
2016,10,14,16,35,7.20
2016,10,14,16,36,6.10
2016,10,14,16,37,5.00
2016,10,14,16,38,5.60
2016,10,14,16,39,8.30
2016,10,14,16,40,7.70
2016,10,14,16,41,14.20
2016,10,14,16,42,13.20
2016,10,14,16,43,12.40
2016,10,14,16,44,18.00
2016,10,14,16,45,10.10
2016,10,14,16,46,13.00
2016,10,14,16,47,15.10
2016,10,14,16,48,14.30
2016,10,14,16,49,12.10
2016,10,14,16,50,14.40
2016,10,14,16,51,12.00
2016,10,14,16,52,11.30
2016,10,14,16,53,12.40
2016,10,14,16,54,14.60
2016,10,14,16,55,11.60
2016,10,14,16,56,13.10
2016,10,14,16,57,10.30
2016,10,14,16,58,14.60
2016,10,14,16,59,15.30
2016,10,14,17,00,13.30
2016,10,14,17,01,16.60
2016,10,14,17,02,14.90
2016,10,14,17,03,18.20
2016,10,14,17,04,12.50
2016,10,14,17,05,15.90
2016,10,14,17,06,15.80
2016,10,14,17,07,15.20
2016,10,14,17,08,18.50
2016,10,14,17,09,12.80
2016,10,14,17,10,13.90
2016,10,14,17,11,13.80
2016,10,14,17,12,10.90
2016,10,14,17,13,9.70
2016,10,14,17,14,16.90
2016,10,14,17,15,11.80
2016,10,14,17,16,16.30
2016,10,14,17,17,18.80
2016,10,14,17,18,14.90
2016,10,14,17,19,16.20
2016,10,14,17,20,12.70
2016,10,14,17,21,10.50
2016,10,14,17,22,10.30
2016,10,14,17,23,10.70
2016,10,14,17,24,8.70
2016,10,14,17,25,7.10
2016,10,14,17,26,7.20
2016,10,14,17,27,14.10
2016,10,14,17,28,13.50
2016,10,14,17,29,12.80
2016,10,14,17,30,12.30
2016,10,14,17,31,15.40
2016,10,14,17,32,13.50
2016,10,14,17,33,16.60
2016,10,14,17,34,19.40
2016,10,14,17,35,16.30
2016,10,14,17,36,20.10
2016,10,14,17,37,18.30
2016,10,14,17,38,23.70
2016,10,14,17,39,17.10
2016,10,14,17,40,13.60
2016,10,14,17,41,13.40
2016,10,14,17,42,13.40
2016,10,14,17,43,19.80
2016,10,14,17,44,14.00
2016,10,14,17,45,16.60
2016,10,14,17,46,14.00
2016,10,14,17,47,14.00
2016,10,14,17,48,18.10
2016,10,14,17,49,10.30